User: anonymous   Login
Location: Caribou
(46.8667°N, 68.0167°W)
Time: 03:05:52
(UTC-04:00)
Language:

SL-08 RB Rocket - Orbit

View from above orbital plane
View from above orbital plane
View from above satellite
View from above satellite

Ground track
Ground track

The orbit data is extracted from the following two-line orbital elements,

1 26387U 00033D   17174.84665552 +.00000085 +00000-0 +23110-4 0  9997
2 26387 097.9703 238.9632 0025495 318.2294 173.3145 14.68284538166545
Epoch (UTC): 23 June 2017 20:19:11
Eccentricity: 0.0025495
inclination: 97.9703°
perigee height: 648 km
apogee height: 684 km
right ascension of ascending node: 238.9632°
argument of perigee: 318.2294°
revolutions per day: 14.68284538
mean anomaly at epoch: 173.3145°
orbit number at epoch: 16654

The dashed part of the orbit path shows where the satellite is in the earth's shadow,  

DLR